This is the latest recevied weather packets stored in our database for station/object KC3DGM. If no packets are shown the sender has not sent any weather packets the latest 10 day(s).
| Time | Temp. | Humidity | Pressure | Rain* | Wind** | Luminosity | Snow |
|---|---|---|---|---|---|---|---|
| 1778080691 | 10° C | 90% | 980.9 hPa | 0 mm | - | 55 W/m² | - |
| 1778080387 | 10° C | 90% | 980.9 hPa | 0 mm | - | 126 W/m² | - |
| 1778080084 | 10° C | 92% | 980.9 hPa | 0 mm | - | 155 W/m² | - |
| 1778079781 | 9.44° C | 92% | 980.7 hPa | 0 mm | - | 123 W/m² | - |
| 1778079478 | 9.44° C | 92% | 980.8 hPa | 0 mm | - | 95 W/m² | - |
| 1778079174 | 9.44° C | 93% | 980.7 hPa | 0 mm | - | 118 W/m² | - |
| 1778078872 | 9.44° C | 93% | 980.9 hPa | 0 mm | - | 120 W/m² | - |
| 1778078568 | 8.89° C | 93% | 980.8 hPa | 0 mm | - | 99 W/m² | - |
| 1778078266 | 9.44° C | 94% | 980.7 hPa | 0 mm | - | 58 W/m² | - |
| 1778077963 | 9.44° C | 94% | 980.4 hPa | 0 mm | - | 62 W/m² | - |
| 1778077662 | 9.44° C | 94% | 980.7 hPa | 0 mm | - | 39 W/m² | - |
| 1778077359 | 9.44° C | 95% | 980.4 hPa | 0 mm | - | 69 W/m² | - |
| 1778077057 | 9.44° C | 95% | 980.2 hPa | 0 mm | - | 147 W/m² | - |
| 1778076755 | 9.44° C | 95% | 980.2 hPa | 0 mm | - | 127 W/m² | - |
| 1778076453 | 8.89° C | 96% | 980.3 hPa | 0 mm | - | 109 W/m² | - |
| 1778076149 | 8.89° C | 96% | 980.4 hPa | 0 mm | - | 86 W/m² | - |
| 1778075846 | 8.89° C | 97% | 980.1 hPa | 0 mm | - | 69 W/m² | - |
| 1778075542 | 8.89° C | 97% | 980.2 hPa | 0 mm | - | 69 W/m² | - |
| 1778075240 | 8.89° C | 98% | 980.2 hPa | 0 mm | - | 127 W/m² | - |
| 1778074936 | 8.89° C | 98% | 980 hPa | 0 mm | - | 122 W/m² | - |
| 1778074633 | 8.89° C | 98% | 980.1 hPa | 0 mm | - | 62 W/m² | - |
| 1778074329 | 8.89° C | 98% | 979.7 hPa | 0 mm | - | 59 W/m² | - |
| 1778074027 | 8.33° C | 98% | 979.6 hPa | 0 mm | - | 73 W/m² | - |
| 1778073724 | 8.89° C | 98% | 979.7 hPa | 0 mm | - | 63 W/m² | - |
| 1778073421 | 8.89° C | 98% | 979.6 hPa | 0 mm | - | 66 W/m² | - |
* Rain latest hour (hover to see other rain measurements)
** Current wind speed in m/s (hover to see current wind gust speed)